FW6260 Weather Reports


Display with metric or nautical units.
time (UTC)temp
F
wind
direction
speed
MPH
gust
MPH
rain 1hr
in
rain 24hr
in
rain mn
in
humidity
%
barometer
mb
20260902190027 67 0.0 0.0 0.00 0.00 0.00 69
20260902183059 68 0.0 0.0 0.00 0.00 0.00 66
20260902180048 69 176 0.0 1.0 0.00 0.00 0.00 64
20260902173059 71 150 0.0 2.0 0.00 0.00 0.00 59
20260902170029 74 178 1.0 4.0 0.00 0.00 0.00 53
20260902163120 75 203 0.0 3.0 0.00 0.00 0.00 52
20260902160031 76 179 1.0 7.0 0.00 0.00 0.00 47
20260902153103 77 150 1.0 4.0 0.00 0.00 0.00 47
20260902150031 77 169 1.0 3.0 0.00 0.00 0.00 48
20260902143122 76 169 1.0 4.0 0.00 0.00 0.00 46
20260902140112 77 161 1.0 6.0 0.00 0.00 0.00 47
20260902133103 76 206 1.0 7.0 0.00 0.00 0.00 49
20260902130033 75 115 1.0 6.0 0.00 0.00 0.00 52
20260902123104 76 134 1.0 4.0 0.00 0.00 0.00 50
20260902120034 75 156 2.0 6.0 0.00 0.00 0.00 51
20260902113125 74 133 1.0 4.0 0.00 0.00 0.00 53
20260902110035 73 148 1.0 7.0 0.00 0.00 0.00 55
20260902103106 71 135 0.0 4.0 0.00 0.00 0.00 60
20260902100036 70 129 1.0 3.0 0.00 0.00 0.00 62
20260902093107 70 118 1.0 6.0 0.00 0.00 0.00 64
20260902090037 68 135 0.0 2.0 0.00 0.00 0.00 72
20260902083108 64 149 0.0 2.0 0.00 0.00 0.00 78
20260902080039 64 147 1.0 2.0 0.00 0.00 0.00 78
20260902073110 62 133 1.0 6.0 0.00 0.00 0.00 79
20260902070059 59 129 1.0 3.0 0.00 0.00 0.00 84
20260902063110 56 127 1.0 3.0 0.00 0.00 0.00 88
20260902060039 52 131 1.0 4.0 0.00 0.00 0.00 93
20260902053109 50 137 1.0 3.0 0.00 0.00 0.00 97
20260902050039 49 152 0.0 3.0 0.00 0.00 0.00 97
20260902043110 49 146 0.0 2.0 0.00 0.00 0.00 97
20260902040120 50 156 0.0 2.0 0.00 0.00 0.00 97
20260902033111 50 146 0.0 2.0 0.00 0.00 0.00 97
20260902030041 50 149 1.0 3.0 0.00 0.00 0.00 96
20260902023112 51 149 0.0 2.0 0.00 0.00 0.00 96
20260902020042 51 146 0.0 2.0 0.00 0.00 0.00 95
20260902013113 51 145 1.0 3.0 0.00 0.00 0.00 95
20260902010043 52 143 1.0 2.0 0.00 0.00 0.00 94
20260902003114 52 142 0.0 2.0 0.00 0.00 0.00 94
20260902000104 53 147 0.0 3.0 0.00 0.00 0.00 93
20260901233135 53 122 0.0 2.0 0.00 0.00 0.00 92
20260901230045 54 145 0.0 2.0 0.00 0.00 0.00 92
20260901223116 54 136 0.0 1.0 0.00 0.00 0.00 90
20260901220046 55 142 0.0 2.0 0.00 0.00 0.00 89
20260901213016 55 126 0.0 1.0 0.00 0.00 0.00 89
20260901210047 56 0.0 0.0 0.00 0.00 0.00 87
20260901203017 57 127 0.0 1.0 0.00 0.00 0.00 85
20260901200048 57 0.0 0.0 0.00 0.00 0.00 86
20260901193018 58 0.0 0.0 0.00 0.00 0.00 81